Find OneWeb SL0558

NORAD ID: 56059 Int'l Des: 2023-043 Owner: ONEWEBN Country: UK Constellation: oneweb operational
LEOCIRCULARPOLARONEWEB_TYPE

Live Position

Loading 3D Globe...

About OneWeb SL0558

Description loading...

Upcoming Passes

Passes for default location (London). Set your location on the main map for personalized predictions.

Altitude History

Loading altitude history...

Two-Line Element Set

1 56059U 23043P 26124.61586391 .00000120 00000-0 25799-3 0 9999
2 56059 87.9231 252.6514 0001618 87.9399 272.1920 13.21824182152488
Epoch: May 4, 2026 • Age: 6 hours

Current Status

Altitude 1186.7 km
Velocity 7.26 km/s
Sub-Earth Point -22.46°S, 108.08°W
Launch Date Mar 26, 2023
Age 3.1 years
Type internet

Technical Details

Classification Payload
Mass 148.00 kg
Dry Mass 140.00 kg
Total Mass 148.00 kg
Length 1.30 m
Diameter 1.00 m
Span 5.00 m
Shape Trapezoid+2 pan
Manufacturer ONEWUS
Bus Type ARROW
Phase Status In Orbit
Owner/State ONEWEBN/UK

Most Searched